Time,TemperatureF,DewpointF,PressureIn,WindDirection,WindDirectionDegrees,WindSpeedMPH,WindSpeedGustMPH,Humidity,HourlyPrecipIn,Conditions,Clouds,dailyrainin,SoftwareType,DateUTC
2013-01-06 00:02:00,19.6,13.6,27.40,NW,315,0.0,2.2,77,0.00,,---,0.00,VWS V14.01,2013-01-06 06:02:00,
2013-01-06 00:08:00,19.6,13.9,27.40,West,270,2.7,3.4,78,0.00,,---,0.00,VWS V14.01,2013-01-06 06:08:00,
2013-01-06 00:13:00,19.8,14.6,27.40,NNW,338,4.0,4.0,80,0.00,,---,0.00,VWS V14.01,2013-01-06 06:13:00,
2013-01-06 00:15:00,20.5,12.3,27.40,SW,225,4.0,7.8,70,0.00,,---,0.00,VWS V14.01,2013-01-06 06:15:00,
2013-01-06 00:18:00,20.5,15.3,27.43,West,270,3.4,5.6,80,0.00,,---,0.00,VWS V14.01,2013-01-06 06:18:00,
2013-01-06 00:23:00,20.5,15.0,27.43,SW,225,0.0,5.6,79,0.00,,---,0.00,VWS V14.01,2013-01-06 06:23:00,
2013-01-06 00:28:00,20.5,14.7,27.43,SW,225,3.6,5.6,78,0.00,,---,0.00,VWS V14.01,2013-01-06 06:28:00,
2013-01-06 00:30:00,20.1,13.2,27.40,NW,315,3.4,4.3,74,0.00,,---,0.00,VWS V14.01,2013-01-06 06:30:00,
2013-01-06 00:33:00,20.7,14.9,27.43,WNW,292,2.9,4.7,78,0.00,,---,0.00,VWS V14.01,2013-01-06 06:33:00,
2013-01-06 00:38:00,20.8,14.8,27.43,WNW,292,7.8,7.8,77,0.00,,---,0.00,VWS V14.01,2013-01-06 06:38:00,
2013-01-06 00:43:00,21.7,15.6,27.43,WNW,292,5.8,7.8,77,0.00,,---,0.00,VWS V14.01,2013-01-06 06:43:00,
2013-01-06 00:45:00,19.0,11.8,27.40,NW,315,2.0,3.8,73,0.00,,---,0.00,VWS V14.01,2013-01-06 06:45:00,
2013-01-06 00:48:00,22.3,15.6,27.40,North,0,5.4,7.8,75,0.00,,---,0.00,VWS V14.01,2013-01-06 06:48:00,
2013-01-06 00:53:00,22.5,14.8,27.40,NW,315,6.3,7.8,72,0.00,,---,0.00,VWS V14.01,2013-01-06 06:53:00,
2013-01-06 00:58:00,22.3,14.0,27.40,WNW,292,2.2,7.8,70,0.00,,---,0.00,VWS V14.01,2013-01-06 06:58:00,
2013-01-06 01:00:00,19.0,12.1,27.37,West,270,2.7,5.4,74,0.00,,---,0.00,VWS V14.01,2013-01-06 07:00:00,
2013-01-06 01:03:00,21.6,13.0,27.40,WNW,292,0.0,7.8,69,0.00,,---,0.00,VWS V14.01,2013-01-06 07:03:00,
2013-01-06 01:08:00,21.2,13.0,27.40,WSW,248,0.0,7.8,70,0.00,,---,0.00,VWS V14.01,2013-01-06 07:08:00,
2013-01-06 01:13:00,20.7,12.4,27.40,SW,225,2.2,7.8,70,0.00,,---,0.00,VWS V14.01,2013-01-06 07:13:00,
2013-01-06 01:15:00,17.6,10.1,27.37,NW,315,2.5,3.8,72,0.00,,---,0.00,VWS V14.01,2013-01-06 07:15:00,
2013-01-06 01:18:00,20.1,11.9,27.40,WNW,292,1.3,4.0,70,0.00,,---,0.00,VWS V14.01,2013-01-06 07:18:00,
2013-01-06 01:23:00,19.9,12.1,27.40,West,270,2.5,4.0,71,0.00,,---,0.00,VWS V14.01,2013-01-06 07:23:00,
2013-01-06 01:28:00,19.9,12.7,27.40,WNW,292,2.5,4.0,73,0.00,,---,0.00,VWS V14.01,2013-01-06 07:28:00,
2013-01-06 01:30:00,16.9,9.7,27.40,NW,315,2.9,4.0,73,0.00,,---,0.00,VWS V14.01,2013-01-06 07:30:00,
2013-01-06 01:33:00,20.1,13.2,27.40,WNW,292,3.6,3.6,74,0.00,,---,0.00,VWS V14.01,2013-01-06 07:33:00,
2013-01-06 01:38:00,19.9,12.7,27.40,SW,225,2.0,3.6,73,0.00,,---,0.00,VWS V14.01,2013-01-06 07:38:00,
2013-01-06 01:43:00,19.2,11.7,27.40,NW,315,2.2,3.8,72,0.00,,---,0.00,VWS V14.01,2013-01-06 07:43:00,
2013-01-06 01:45:00,16.7,9.6,27.43,NNE,22,2.5,4.9,73,0.00,,---,0.00,VWS V14.01,2013-01-06 07:45:00,
2013-01-06 01:48:00,19.0,12.1,27.37,WNW,292,3.4,3.6,74,0.00,,---,0.00,VWS V14.01,2013-01-06 07:48:00,
2013-01-06 01:53:00,19.0,12.1,27.37,WNW,292,4.7,5.4,74,0.00,,---,0.00,VWS V14.01,2013-01-06 07:53:00,
2013-01-06 01:58:00,19.0,12.1,27.37,WSW,248,2.9,5.4,74,0.00,,---,0.00,VWS V14.01,2013-01-06 07:58:00,
2013-01-06 02:00:00,16.5,9.1,27.43,West,270,2.0,4.0,72,0.00,,---,0.00,VWS V14.01,2013-01-06 08:00:00,
2013-01-06 02:03:00,18.7,11.5,27.37,WSW,248,2.0,2.7,73,0.00,,---,0.00,VWS V14.01,2013-01-06 08:03:00,
2013-01-06 02:08:00,18.1,10.3,27.37,SSW,202,1.6,3.4,71,0.00,,---,0.00,VWS V14.01,2013-01-06 08:08:00,
2013-01-06 02:13:00,17.8,10.0,27.37,NW,315,1.3,3.8,71,0.00,,---,0.00,VWS V14.01,2013-01-06 08:13:00,
2013-01-06 02:15:00,16.9,9.1,27.43,West,270,4.9,8.5,71,0.00,,---,0.00,VWS V14.01,2013-01-06 08:15:00,
2013-01-06 02:18:00,17.4,9.9,27.40,West,270,2.9,4.0,72,0.00,,---,0.00,VWS V14.01,2013-01-06 08:18:00,
2013-01-06 02:23:00,17.2,10.1,27.40,NW,315,0.0,4.0,73,0.00,,---,0.00,VWS V14.01,2013-01-06 08:23:00,
2013-01-06 02:28:00,17.1,9.9,27.40,SW,225,0.9,4.0,73,0.00,,---,0.00,VWS V14.01,2013-01-06 08:28:00,
2013-01-06 02:30:00,17.1,8.0,27.43,WNW,292,3.6,6.5,67,0.00,,---,0.00,VWS V14.01,2013-01-06 08:30:00,
2013-01-06 02:33:00,16.9,10.0,27.43,West,270,2.9,3.8,74,0.00,,---,0.00,VWS V14.01,2013-01-06 08:33:00,
2013-01-06 02:38:00,17.1,10.2,27.43,WNW,292,1.6,4.7,74,0.00,,---,0.00,VWS V14.01,2013-01-06 08:38:00,
2013-01-06 02:43:00,16.9,9.7,27.43,NNW,338,0.0,4.9,73,0.00,,---,0.00,VWS V14.01,2013-01-06 08:43:00,
2013-01-06 02:48:00,16.5,9.1,27.43,North,0,1.3,2.5,72,0.00,,---,0.00,VWS V14.01,2013-01-06 08:48:00,
2013-01-06 02:53:00,16.3,8.9,27.43,NNE,22,2.5,2.5,72,0.00,,---,0.00,VWS V14.01,2013-01-06 08:53:00,
2013-01-06 02:58:00,16.5,9.1,27.43,NW,315,2.7,4.0,72,0.00,,---,0.00,VWS V14.01,2013-01-06 08:58:00,
2013-01-06 03:00:00,17.1,7.0,27.40,West,270,4.9,7.4,64,0.00,,---,0.00,VWS V14.01,2013-01-06 09:00:00,
2013-01-06 03:03:00,16.5,9.1,27.43,NW,315,2.0,4.0,72,0.00,,---,0.00,VWS V14.01,2013-01-06 09:03:00,
2013-01-06 03:08:00,16.7,9.3,27.43,NNW,338,2.5,4.0,72,0.00,,---,0.00,VWS V14.01,2013-01-06 09:08:00,
2013-01-06 03:13:00,16.7,8.9,27.43,West,270,8.5,8.5,71,0.00,,---,0.00,VWS V14.01,2013-01-06 09:13:00,
2013-01-06 03:15:00,16.5,6.1,27.43,WNW,292,7.8,8.1,63,0.00,,---,0.00,VWS V14.01,2013-01-06 09:15:00,
2013-01-06 03:18:00,17.1,9.0,27.43,WSW,248,4.9,4.9,70,0.00,,---,0.00,VWS V14.01,2013-01-06 09:18:00,
2013-01-06 03:23:00,17.2,8.8,27.43,West,270,5.4,6.5,69,0.00,,---,0.00,VWS V14.01,2013-01-06 09:23:00,
2013-01-06 03:28:00,17.1,8.3,27.43,West,270,6.0,6.5,68,0.00,,---,0.00,VWS V14.01,2013-01-06 09:28:00,
2013-01-06 03:30:00,16.2,5.4,27.43,West,270,3.6,10.1,62,0.00,,---,0.00,VWS V14.01,2013-01-06 09:30:00,
2013-01-06 03:33:00,17.1,8.0,27.40,NW,315,5.4,6.0,67,0.00,,---,0.00,VWS V14.01,2013-01-06 09:33:00,
2013-01-06 03:38:00,17.1,8.0,27.40,North,0,4.9,6.5,67,0.00,,---,0.00,VWS V14.01,2013-01-06 09:38:00,
2013-01-06 03:43:00,17.1,7.7,27.40,West,270,3.6,6.5,66,0.00,,---,0.00,VWS V14.01,2013-01-06 09:43:00,
2013-01-06 03:45:00,15.6,5.3,27.40,West,270,3.4,7.2,63,0.00,,---,0.00,VWS V14.01,2013-01-06 09:45:00,
2013-01-06 03:48:00,17.2,7.5,27.40,West,270,4.3,6.5,65,0.00,,---,0.00,VWS V14.01,2013-01-06 09:48:00,
2013-01-06 03:53:00,17.2,7.5,27.40,WNW,292,3.6,6.5,65,0.00,,---,0.00,VWS V14.01,2013-01-06 09:53:00,
2013-01-06 03:58:00,17.2,7.2,27.40,West,270,3.4,7.4,64,0.00,,---,0.00,VWS V14.01,2013-01-06 09:58:00,
2013-01-06 04:00:00,15.3,4.9,27.40,West,270,4.9,7.2,63,0.00,,---,0.00,VWS V14.01,2013-01-06 10:00:00,
2013-01-06 04:03:00,17.1,7.0,27.43,WSW,248,3.1,6.0,64,0.00,,---,0.00,VWS V14.01,2013-01-06 10:03:00,
2013-01-06 04:08:00,16.9,6.5,27.43,West,270,4.3,8.1,63,0.00,,---,0.00,VWS V14.01,2013-01-06 10:08:00,
2013-01-06 04:13:00,16.7,6.3,27.43,NW,315,5.8,8.1,63,0.00,,---,0.00,VWS V14.01,2013-01-06 10:13:00,
2013-01-06 04:15:00,15.4,4.8,27.40,NW,315,3.8,8.7,62,0.00,,---,0.00,VWS V14.01,2013-01-06 10:15:00,
2013-01-06 04:18:00,16.5,6.1,27.43,WNW,292,5.8,9.8,63,0.00,,---,0.00,VWS V14.01,2013-01-06 10:18:00,
2013-01-06 04:23:00,16.5,6.1,27.43,West,270,8.1,9.8,63,0.00,,---,0.00,VWS V14.01,2013-01-06 10:23:00,
2013-01-06 04:28:00,16.2,5.4,27.43,West,270,4.0,10.1,62,0.00,,---,0.00,VWS V14.01,2013-01-06 10:28:00,
2013-01-06 04:30:00,15.3,4.6,27.40,WNW,292,2.9,7.8,62,0.00,,---,0.00,VWS V14.01,2013-01-06 10:30:00,
2013-01-06 04:33:00,16.2,5.4,27.40,WNW,292,4.9,7.2,62,0.00,,---,0.00,VWS V14.01,2013-01-06 10:33:00,
2013-01-06 04:38:00,16.0,5.3,27.40,WNW,292,5.4,7.2,62,0.00,,---,0.00,VWS V14.01,2013-01-06 10:38:00,
2013-01-06 04:43:00,15.8,5.1,27.40,West,270,6.3,7.2,62,0.00,,---,0.00,VWS V14.01,2013-01-06 10:43:00,
2013-01-06 04:45:00,14.9,4.2,27.40,WNW,292,4.0,6.0,62,0.00,,---,0.00,VWS V14.01,2013-01-06 10:45:00,
2013-01-06 04:48:00,15.4,5.1,27.40,WNW,292,4.3,6.3,63,0.00,,---,0.00,VWS V14.01,2013-01-06 10:48:00,
2013-01-06 04:53:00,15.4,5.1,27.40,WSW,248,4.3,7.2,63,0.00,,---,0.00,VWS V14.01,2013-01-06 10:53:00,
2013-01-06 04:58:00,15.3,4.9,27.40,West,270,3.8,7.2,63,0.00,,---,0.00,VWS V14.01,2013-01-06 10:58:00,
2013-01-06 05:00:00,14.5,3.9,27.40,West,270,2.9,7.4,62,0.00,,---,0.00,VWS V14.01,2013-01-06 11:00:00,
2013-01-06 05:03:00,15.4,5.1,27.40,NW,315,4.9,8.5,63,0.00,,---,0.00,VWS V14.01,2013-01-06 11:03:00,
2013-01-06 05:08:00,15.4,4.8,27.40,WNW,292,3.8,8.5,62,0.00,,---,0.00,VWS V14.01,2013-01-06 11:08:00,
2013-01-06 05:13:00,15.4,4.8,27.40,WNW,292,3.8,8.7,62,0.00,,---,0.00,VWS V14.01,2013-01-06 11:13:00,
2013-01-06 05:15:00,14.5,3.9,27.40,WNW,292,2.0,6.0,62,0.00,,---,0.00,VWS V14.01,2013-01-06 11:15:00,
2013-01-06 05:18:00,15.4,4.8,27.40,West,270,3.6,6.3,62,0.00,,---,0.00,VWS V14.01,2013-01-06 11:18:00,
2013-01-06 05:23:00,15.4,4.8,27.40,West,270,4.9,7.8,62,0.00,,---,0.00,VWS V14.01,2013-01-06 11:23:00,
2013-01-06 05:28:00,15.3,4.6,27.40,NW,315,3.4,7.8,62,0.00,,---,0.00,VWS V14.01,2013-01-06 11:28:00,
2013-01-06 05:30:00,13.6,2.7,27.43,WNW,292,2.2,4.3,61,0.00,,---,0.00,VWS V14.01,2013-01-06 11:30:00,
2013-01-06 05:33:00,15.3,4.6,27.40,West,270,2.5,4.3,62,0.00,,---,0.00,VWS V14.01,2013-01-06 11:33:00,
2013-01-06 05:38:00,15.1,4.4,27.40,WNW,292,4.9,4.9,62,0.00,,---,0.00,VWS V14.01,2013-01-06 11:38:00,
2013-01-06 05:43:00,14.9,4.2,27.40,WNW,292,4.3,6.0,62,0.00,,---,0.00,VWS V14.01,2013-01-06 11:43:00,
2013-01-06 05:45:00,13.5,2.5,27.40,West,270,2.0,2.7,61,0.00,,---,0.00,VWS V14.01,2013-01-06 11:45:00,
2013-01-06 05:48:00,14.9,4.2,27.40,WNW,292,6.5,7.4,62,0.00,,---,0.00,VWS V14.01,2013-01-06 11:48:00,
2013-01-06 05:53:00,14.9,4.2,27.40,NW,315,4.7,7.4,62,0.00,,---,0.00,VWS V14.01,2013-01-06 11:53:00,
2013-01-06 05:58:00,14.5,3.9,27.40,West,270,4.3,7.4,62,0.00,,---,0.00,VWS V14.01,2013-01-06 11:58:00,
2013-01-06 06:00:00,13.8,2.9,27.40,West,270,4.3,5.6,61,0.00,,---,0.00,VWS V14.01,2013-01-06 12:00:00,
2013-01-06 06:03:00,14.5,3.9,27.40,West,270,2.0,4.3,62,0.00,,---,0.00,VWS V14.01,2013-01-06 12:03:00,
2013-01-06 06:08:00,14.5,3.9,27.40,WNW,292,4.3,5.6,62,0.00,,---,0.00,VWS V14.01,2013-01-06 12:08:00,
2013-01-06 06:13:00,14.5,3.9,27.40,WNW,292,3.6,5.8,62,0.00,,---,0.00,VWS V14.01,2013-01-06 12:13:00,
2013-01-06 06:15:00,12.7,1.9,27.40,NNW,338,2.7,4.3,61,0.00,,---,0.00,VWS V14.01,2013-01-06 12:15:00,
2013-01-06 06:18:00,14.5,3.5,27.43,NW,315,2.0,4.3,61,0.00,,---,0.00,VWS V14.01,2013-01-06 12:18:00,
2013-01-06 06:23:00,14.4,3.4,27.43,WSW,248,0.0,4.3,61,0.00,,---,0.00,VWS V14.01,2013-01-06 12:23:00,
2013-01-06 06:28:00,13.8,2.9,27.43,West,270,1.3,4.3,61,0.00,,---,0.00,VWS V14.01,2013-01-06 12:28:00,
2013-01-06 06:30:00,12.7,1.9,27.40,NW,315,2.7,2.9,61,0.00,,---,0.00,VWS V14.01,2013-01-06 12:30:00,
2013-01-06 06:32:00,13.6,2.7,27.40,NW,315,0.0,2.5,61,0.00,,---,0.00,VWS V14.01,2013-01-06 12:32:00,
2013-01-06 06:37:00,13.3,2.4,27.40,NW,315,0.0,2.5,61,0.00,,---,0.00,VWS V14.01,2013-01-06 12:37:00,
2013-01-06 06:42:00,13.3,2.4,27.40,SW,225,0.9,2.5,61,0.00,,---,0.00,VWS V14.01,2013-01-06 12:42:00,
2013-01-06 06:45:00,13.1,2.2,27.43,WNW,292,2.0,4.3,61,0.00,,---,0.00,VWS V14.01,2013-01-06 12:45:00,
2013-01-06 06:47:00,13.5,2.5,27.40,West,270,2.7,4.0,61,0.00,,---,0.00,VWS V14.01,2013-01-06 12:47:00,
2013-01-06 06:52:00,13.6,2.7,27.40,WNW,292,4.3,5.4,61,0.00,,---,0.00,VWS V14.01,2013-01-06 12:52:00,
2013-01-06 06:57:00,13.8,2.9,27.40,WNW,292,2.5,5.6,61,0.00,,---,0.00,VWS V14.01,2013-01-06 12:57:00,
2013-01-06 07:00:00,13.3,2.4,27.43,WNW,292,2.9,6.0,61,0.00,,---,0.00,VWS V14.01,2013-01-06 13:00:00,
2013-01-06 07:02:00,13.8,2.9,27.40,West,270,2.9,4.3,61,0.00,,---,0.00,VWS V14.01,2013-01-06 13:02:00,
2013-01-06 07:07:00,13.6,2.7,27.40,NW,315,1.1,4.3,61,0.00,,---,0.00,VWS V14.01,2013-01-06 13:07:00,
2013-01-06 07:12:00,12.9,2.0,27.40,NNW,338,0.0,4.3,61,0.00,,---,0.00,VWS V14.01,2013-01-06 13:12:00,
2013-01-06 07:15:00,14.5,3.6,27.40,WSW,248,3.8,5.4,61,0.00,,---,0.00,VWS V14.01,2013-01-06 13:15:00,
2013-01-06 07:17:00,12.7,1.9,27.40,NW,315,1.3,2.9,61,0.00,,---,0.00,VWS V14.01,2013-01-06 13:17:00,
2013-01-06 07:22:00,12.9,2.0,27.40,North,0,1.6,2.9,61,0.00,,---,0.00,VWS V14.01,2013-01-06 13:22:00,
2013-01-06 07:27:00,12.7,1.9,27.40,North,0,0.0,2.9,61,0.00,,---,0.00,VWS V14.01,2013-01-06 13:27:00,
2013-01-06 07:30:00,17.1,4.8,27.43,West,270,4.3,7.4,58,0.00,,---,0.00,VWS V14.01,2013-01-06 13:30:00,
2013-01-06 07:32:00,12.9,2.0,27.43,NW,315,2.7,3.1,61,0.00,,---,0.00,VWS V14.01,2013-01-06 13:32:00,
2013-01-06 07:37:00,13.1,2.2,27.43,WNW,292,2.5,4.3,61,0.00,,---,0.00,VWS V14.01,2013-01-06 13:37:00,
2013-01-06 07:42:00,13.3,2.4,27.43,West,270,2.7,4.3,61,0.00,,---,0.00,VWS V14.01,2013-01-06 13:42:00,
2013-01-06 07:45:00,19.0,5.9,27.43,NW,315,0.0,5.6,56,0.00,,---,0.00,VWS V14.01,2013-01-06 13:45:00,
2013-01-06 07:47:00,12.9,2.0,27.43,WNW,292,0.0,2.0,61,0.00,,---,0.00,VWS V14.01,2013-01-06 13:47:00,
2013-01-06 07:52:00,12.9,2.0,27.43,WNW,292,2.5,3.8,61,0.00,,---,0.00,VWS V14.01,2013-01-06 13:52:00,
2013-01-06 07:57:00,13.3,2.4,27.43,NW,315,3.6,5.8,61,0.00,,---,0.00,VWS V14.01,2013-01-06 13:57:00,
2013-01-06 08:00:00,21.0,7.0,27.40,NW,315,2.7,4.0,54,0.00,,---,0.00,VWS V14.01,2013-01-06 14:00:00,
2013-01-06 08:02:00,13.5,2.5,27.40,West,270,2.9,5.4,61,0.00,,---,0.00,VWS V14.01,2013-01-06 14:02:00,
2013-01-06 08:07:00,13.8,2.9,27.40,West,270,4.9,5.4,61,0.00,,---,0.00,VWS V14.01,2013-01-06 14:07:00,
2013-01-06 08:12:00,14.2,3.6,27.40,West,270,3.8,5.4,62,0.00,,---,0.00,VWS V14.01,2013-01-06 14:12:00,
2013-01-06 08:15:00,22.8,8.3,27.43,West,270,1.1,2.7,53,0.00,,---,0.00,VWS V14.01,2013-01-06 14:15:00,
2013-01-06 08:17:00,15.1,4.1,27.43,West,270,2.0,4.3,61,0.00,,---,0.00,VWS V14.01,2013-01-06 14:17:00,
2013-01-06 08:22:00,15.8,4.4,27.43,WNW,292,3.6,4.3,60,0.00,,---,0.00,VWS V14.01,2013-01-06 14:22:00,
2013-01-06 08:27:00,16.7,4.5,27.43,NW,315,4.7,4.7,58,0.00,,---,0.00,VWS V14.01,2013-01-06 14:27:00,
2013-01-06 08:30:00,25.0,9.4,27.40,WNW,292,1.1,2.2,51,0.00,,---,0.00,VWS V14.01,2013-01-06 14:30:00,
2013-01-06 08:32:00,17.4,4.8,27.43,WNW,292,5.4,5.6,57,0.00,,---,0.00,VWS V14.01,2013-01-06 14:32:00,
2013-01-06 08:37:00,18.1,5.1,27.43,West,270,2.7,5.6,56,0.00,,---,0.00,VWS V14.01,2013-01-06 14:37:00,
2013-01-06 08:42:00,18.7,5.6,27.43,West,270,1.6,5.6,56,0.00,,---,0.00,VWS V14.01,2013-01-06 14:42:00,
2013-01-06 08:45:00,26.2,9.2,27.40,West,270,1.6,2.7,48,0.00,,---,0.00,VWS V14.01,2013-01-06 14:45:00,
2013-01-06 08:47:00,19.8,6.2,27.40,NW,315,2.0,2.0,55,0.00,,---,0.00,VWS V14.01,2013-01-06 14:47:00,
2013-01-06 08:52:00,20.3,6.3,27.40,West,270,3.6,3.6,54,0.00,,---,0.00,VWS V14.01,2013-01-06 14:52:00,
2013-01-06 08:57:00,20.5,6.5,27.40,WNW,292,2.5,4.0,54,0.00,,---,0.00,VWS V14.01,2013-01-06 14:57:00,
2013-01-06 09:00:00,26.8,9.7,27.40,South,180,2.7,3.4,48,0.00,,---,0.00,VWS V14.01,2013-01-06 15:00:00,
2013-01-06 09:02:00,21.2,7.2,27.43,West,270,0.0,2.7,54,0.00,,---,0.00,VWS V14.01,2013-01-06 15:02:00,
2013-01-06 09:07:00,21.9,7.8,27.43,WSW,248,0.0,2.7,54,0.00,,---,0.00,VWS V14.01,2013-01-06 15:07:00,
2013-01-06 09:12:00,22.3,7.8,27.43,NW,315,0.9,2.7,53,0.00,,---,0.00,VWS V14.01,2013-01-06 15:12:00,
2013-01-06 09:15:00,27.9,10.3,27.40,SW,225,1.6,4.9,47,0.00,,---,0.00,VWS V14.01,2013-01-06 15:15:00,
2013-01-06 09:17:00,23.2,8.2,27.40,West,270,1.1,1.3,52,0.00,,---,0.00,VWS V14.01,2013-01-06 15:17:00,
2013-01-06 09:22:00,23.9,8.9,27.40,NW,315,0.0,2.2,52,0.00,,---,0.00,VWS V14.01,2013-01-06 15:22:00,
2013-01-06 09:27:00,24.4,8.9,27.40,SW,225,2.0,2.2,51,0.00,,---,0.00,VWS V14.01,2013-01-06 15:27:00,
2013-01-06 09:30:00,28.6,10.4,27.37,SSW,202,2.7,3.6,46,0.00,,---,0.00,VWS V14.01,2013-01-06 15:30:00,
2013-01-06 09:32:00,25.2,9.1,27.40,NW,315,0.0,2.2,50,0.00,,---,0.00,VWS V14.01,2013-01-06 15:32:00,
2013-01-06 09:37:00,25.7,9.2,27.40,WNW,292,2.0,2.7,49,0.00,,---,0.00,VWS V14.01,2013-01-06 15:37:00,
2013-01-06 09:42:00,25.5,9.0,27.40,North,0,0.0,2.7,49,0.00,,---,0.00,VWS V14.01,2013-01-06 15:42:00,
2013-01-06 09:45:00,30.6,11.8,27.40,SW,225,1.3,3.6,45,0.00,,---,0.00,VWS V14.01,2013-01-06 15:45:00,
2013-01-06 09:47:00,26.4,9.4,27.40,SW,225,1.3,2.9,48,0.00,,---,0.00,VWS V14.01,2013-01-06 15:47:00,
2013-01-06 09:52:00,26.4,9.4,27.40,SSW,202,1.3,3.4,48,0.00,,---,0.00,VWS V14.01,2013-01-06 15:52:00,
2013-01-06 09:57:00,26.4,9.4,27.40,SW,225,2.9,3.4,48,0.00,,---,0.00,VWS V14.01,2013-01-06 15:57:00,
2013-01-06 10:00:00,32.5,13.6,27.37,WNW,292,2.7,2.9,45,0.00,,---,0.00,VWS V14.01,2013-01-06 16:00:00,
2013-01-06 10:02:00,27.0,9.9,27.40,West,270,2.9,3.1,48,0.00,,---,0.00,VWS V14.01,2013-01-06 16:02:00,
2013-01-06 10:07:00,27.3,9.3,27.40,West,270,3.4,4.9,46,0.00,,---,0.00,VWS V14.01,2013-01-06 16:07:00,
2013-01-06 10:12:00,27.7,10.1,27.40,West,270,2.5,4.9,47,0.00,,---,0.00,VWS V14.01,2013-01-06 16:12:00,
2013-01-06 10:15:00,34.9,15.2,27.37,WNW,292,2.5,3.8,44,0.00,,---,0.00,VWS V14.01,2013-01-06 16:15:00,
2013-01-06 10:17:00,28.0,10.4,27.37,SW,225,2.2,2.5,47,0.00,,---,0.00,VWS V14.01,2013-01-06 16:17:00,
2013-01-06 10:22:00,27.9,10.3,27.37,South,180,2.9,3.1,47,0.00,,---,0.00,VWS V14.01,2013-01-06 16:22:00,
2013-01-06 10:27:00,28.4,10.8,27.37,SW,225,1.6,3.6,47,0.00,,---,0.00,VWS V14.01,2013-01-06 16:27:00,
2013-01-06 10:30:00,36.7,16.3,27.37,NW,315,2.5,3.4,43,0.00,,---,0.00,VWS V14.01,2013-01-06 16:30:00,
2013-01-06 10:32:00,28.8,10.6,27.40,SW,225,2.0,2.7,46,0.00,,---,0.00,VWS V14.01,2013-01-06 16:32:00,
2013-01-06 10:37:00,30.2,11.9,27.40,SW,225,2.2,3.6,46,0.00,,---,0.00,VWS V14.01,2013-01-06 16:37:00,
2013-01-06 10:42:00,30.4,11.6,27.40,South,180,3.4,3.6,45,0.00,,---,0.00,VWS V14.01,2013-01-06 16:42:00,
2013-01-06 10:45:00,36.0,15.6,27.37,West,270,3.1,4.7,43,0.00,,---,0.00,VWS V14.01,2013-01-06 16:45:00,
2013-01-06 10:47:00,31.1,12.2,27.37,NW,315,0.9,2.0,45,0.00,,---,0.00,VWS V14.01,2013-01-06 16:47:00,
2013-01-06 10:52:00,31.6,13.2,27.37,South,180,2.5,2.7,46,0.00,,---,0.00,VWS V14.01,2013-01-06 16:52:00,
2013-01-06 10:57:00,32.2,13.2,27.37,SW,225,2.5,2.7,45,0.00,,---,0.00,VWS V14.01,2013-01-06 16:57:00,
2013-01-06 11:00:00,37.4,17.0,27.37,South,180,3.4,3.4,43,0.00,,---,0.00,VWS V14.01,2013-01-06 17:00:00,
2013-01-06 11:02:00,32.9,13.9,27.37,WNW,292,0.0,2.7,45,0.00,,---,0.00,VWS V14.01,2013-01-06 17:02:00,
2013-01-06 11:07:00,33.8,14.7,27.37,West,270,3.4,3.4,45,0.00,,---,0.00,VWS V14.01,2013-01-06 17:07:00,
2013-01-06 11:12:00,34.3,14.7,27.37,SSW,202,1.1,3.8,44,0.00,,---,0.00,VWS V14.01,2013-01-06 17:12:00,
2013-01-06 11:15:00,37.0,16.6,27.34,SW,225,2.5,5.4,43,0.00,,---,0.00,VWS V14.01,2013-01-06 17:15:00,
2013-01-06 11:17:00,35.2,15.5,27.37,West,270,2.5,3.4,44,0.00,,---,0.00,VWS V14.01,2013-01-06 17:17:00,
2013-01-06 11:22:00,35.8,15.5,27.37,SW,225,0.0,3.4,43,0.00,,---,0.00,VWS V14.01,2013-01-06 17:22:00,
2013-01-06 11:27:00,36.5,16.1,27.37,WNW,292,3.1,3.4,43,0.00,,---,0.00,VWS V14.01,2013-01-06 17:27:00,
2013-01-06 11:30:00,38.8,18.3,27.34,SW,225,2.5,4.3,43,0.00,,---,0.00,VWS V14.01,2013-01-06 17:30:00,
2013-01-06 11:32:00,36.5,16.1,27.37,WNW,292,2.5,4.0,43,0.00,,---,0.00,VWS V14.01,2013-01-06 17:32:00,
2013-01-06 11:37:00,36.1,15.3,27.37,WNW,292,2.9,4.7,42,0.00,,---,0.00,VWS V14.01,2013-01-06 17:37:00,
2013-01-06 11:42:00,36.1,15.8,27.37,West,270,2.0,4.7,43,0.00,,---,0.00,VWS V14.01,2013-01-06 17:42:00,
2013-01-06 11:45:00,40.8,20.1,27.31,West,270,3.1,4.0,43,0.00,,---,0.00,VWS V14.01,2013-01-06 17:45:00,
2013-01-06 11:47:00,35.8,15.5,27.37,NNW,338,2.5,3.1,43,0.00,,---,0.00,VWS V14.01,2013-01-06 17:47:00,
2013-01-06 11:52:00,36.1,15.8,27.37,SW,225,1.3,3.4,43,0.00,,---,0.00,VWS V14.01,2013-01-06 17:52:00,
2013-01-06 11:57:00,37.4,17.0,27.37,WSW,248,0.0,3.4,43,0.00,,---,0.00,VWS V14.01,2013-01-06 17:57:00,
2013-01-06 12:00:00,43.3,21.8,27.31,SW,225,3.4,3.6,42,0.00,,---,0.00,VWS V14.01,2013-01-06 18:00:00,
2013-01-06 12:02:00,37.0,16.6,27.34,SSW,202,3.8,4.3,43,0.00,,---,0.00,VWS V14.01,2013-01-06 18:02:00,
2013-01-06 12:07:00,36.9,16.5,27.34,South,180,3.6,5.4,43,0.00,,---,0.00,VWS V14.01,2013-01-06 18:07:00,
2013-01-06 12:12:00,36.7,16.3,27.34,South,180,4.0,5.4,43,0.00,,---,0.00,VWS V14.01,2013-01-06 18:12:00,
2013-01-06 12:15:00,45.3,23.6,27.31,SW,225,3.4,3.8,42,0.00,,---,0.00,VWS V14.01,2013-01-06 18:15:00,
2013-01-06 12:17:00,37.4,17.5,27.34,SW,225,2.5,3.4,44,0.00,,---,0.00,VWS V14.01,2013-01-06 18:17:00,
2013-01-06 12:22:00,38.5,17.9,27.34,West,270,2.0,4.0,43,0.00,,---,0.00,VWS V14.01,2013-01-06 18:22:00,
2013-01-06 12:27:00,38.7,18.1,27.34,SW,225,3.1,4.3,43,0.00,,---,0.00,VWS V14.01,2013-01-06 18:27:00,
2013-01-06 12:30:00,46.2,24.4,27.31,South,180,5.6,5.6,42,0.00,,---,0.00,VWS V14.01,2013-01-06 18:30:00,
2013-01-06 12:32:00,38.8,18.3,27.31,West,270,2.7,2.7,43,0.00,,---,0.00,VWS V14.01,2013-01-06 18:32:00,
2013-01-06 12:37:00,39.9,19.2,27.31,West,270,3.1,4.0,43,0.00,,---,0.00,VWS V14.01,2013-01-06 18:37:00,
2013-01-06 12:42:00,40.3,19.0,27.31,South,180,2.5,4.0,42,0.00,,---,0.00,VWS V14.01,2013-01-06 18:42:00,
2013-01-06 12:45:00,46.4,25.1,27.25,SSW,202,4.3,6.9,43,0.00,,---,0.00,VWS V14.01,2013-01-06 18:45:00,
2013-01-06 12:47:00,41.0,19.7,27.31,SW,225,2.7,3.1,42,0.00,,---,0.00,VWS V14.01,2013-01-06 18:47:00,
2013-01-06 12:52:00,42.3,21.4,27.31,WSW,248,1.3,3.1,43,0.00,,---,0.00,VWS V14.01,2013-01-06 18:52:00,
2013-01-06 12:57:00,43.0,21.5,27.31,South,180,2.7,3.6,42,0.00,,---,0.00,VWS V14.01,2013-01-06 18:57:00,
2013-01-06 13:00:00,47.7,25.7,27.25,SSE,158,7.8,7.8,42,0.00,,---,0.00,VWS V14.01,2013-01-06 19:00:00,
2013-01-06 13:02:00,43.5,22.0,27.31,South,180,0.9,3.4,42,0.00,,---,0.00,VWS V14.01,2013-01-06 19:02:00,
2013-01-06 13:07:00,44.1,22.5,27.31,SW,225,3.8,3.8,42,0.00,,---,0.00,VWS V14.01,2013-01-06 19:07:00,
2013-01-06 13:12:00,45.1,23.4,27.31,South,180,2.0,3.8,42,0.00,,---,0.00,VWS V14.01,2013-01-06 19:12:00,
2013-01-06 13:17:00,45.5,23.8,27.31,SW,225,4.0,4.0,42,0.00,,---,0.00,VWS V14.01,2013-01-06 19:17:00,
2013-01-06 13:22:00,45.9,24.1,27.31,SSW,202,4.3,4.7,42,0.00,,---,0.00,VWS V14.01,2013-01-06 19:22:00,
2013-01-06 13:27:00,46.2,24.4,27.31,SW,225,4.3,4.9,42,0.00,,---,0.00,VWS V14.01,2013-01-06 19:27:00,
2013-01-06 13:30:00,47.1,25.8,27.25,South,180,12.5,12.5,43,0.00,,---,0.00,VWS V14.01,2013-01-06 19:30:00,
2013-01-06 13:32:00,46.2,24.4,27.31,South,180,5.4,6.0,42,0.00,,---,0.00,VWS V14.01,2013-01-06 19:32:00,
2013-01-06 13:37:00,46.2,25.0,27.26,SSW,202,6.3,6.9,43,0.00,,---,0.00,VWS V14.01,2013-01-06 19:37:00,
2013-01-06 13:42:00,46.2,25.0,27.26,South,180,6.3,6.9,43,0.00,,---,0.00,VWS V14.01,2013-01-06 19:42:00,
2013-01-06 13:45:00,47.1,25.8,27.25,SSE,158,6.0,12.5,43,0.00,,---,0.00,VWS V14.01,2013-01-06 19:45:00,
2013-01-06 13:47:00,46.8,24.9,27.26,SE,135,4.7,6.0,42,0.00,,---,0.00,VWS V14.01,2013-01-06 19:47:00,
2013-01-06 13:52:00,47.5,25.5,27.26,SE,135,5.8,6.0,42,0.00,,---,0.00,VWS V14.01,2013-01-06 19:52:00,
2013-01-06 13:57:00,47.3,25.4,27.26,South,180,4.0,6.3,42,0.00,,---,0.00,VWS V14.01,2013-01-06 19:57:00,
2013-01-06 14:00:00,47.3,26.0,27.25,South,180,10.1,10.7,43,0.00,,---,0.00,VWS V14.01,2013-01-06 20:00:00,
2013-01-06 14:03:00,47.5,25.5,27.26,SSE,158,7.8,7.8,42,0.00,,---,0.00,VWS V14.01,2013-01-06 20:03:00,
2013-01-06 14:08:00,46.9,25.1,27.26,South,180,6.5,12.1,42,0.00,,---,0.00,VWS V14.01,2013-01-06 20:08:00,
2013-01-06 14:11:00,46.9,25.1,27.26,South,180,7.8,12.1,42,0.00,,---,0.00,VWS V14.01,2013-01-06 20:11:00,
2013-01-06 14:13:00,46.9,25.1,27.26,South,180,5.6,12.1,42,0.00,,---,0.00,VWS V14.01,2013-01-06 20:13:00,
2013-01-06 14:15:00,46.8,26.6,27.23,South,180,10.7,12.8,45,0.00,,---,0.00,VWS V14.01,2013-01-06 20:15:00,
2013-01-06 14:18:00,47.3,25.4,27.26,SE,135,4.9,12.1,42,0.00,,---,0.00,VWS V14.01,2013-01-06 20:18:00,
2013-01-06 14:23:00,47.1,25.2,27.26,South,180,10.1,12.1,42,0.00,,---,0.00,VWS V14.01,2013-01-06 20:23:00,
2013-01-06 14:28:00,47.3,25.4,27.26,SSE,158,10.7,12.1,42,0.00,,---,0.00,VWS V14.01,2013-01-06 20:28:00,
2013-01-06 14:30:00,45.9,26.3,27.23,South,180,13.2,13.2,46,0.00,,---,0.00,VWS V14.01,2013-01-06 20:30:00,
2013-01-06 14:33:00,46.9,25.6,27.26,SSW,202,11.0,12.5,43,0.00,,---,0.00,VWS V14.01,2013-01-06 20:33:00,
2013-01-06 14:38:00,46.8,25.5,27.26,South,180,9.2,12.5,43,0.00,,---,0.00,VWS V14.01,2013-01-06 20:38:00,
2013-01-06 14:43:00,46.9,25.6,27.26,South,180,9.8,12.5,43,0.00,,---,0.00,VWS V14.01,2013-01-06 20:43:00,
2013-01-06 14:45:00,45.3,26.3,27.23,South,180,8.7,13.2,47,0.00,,---,0.00,VWS V14.01,2013-01-06 20:45:00,
2013-01-06 14:48:00,47.1,25.8,27.26,SW,225,7.2,8.7,43,0.00,,---,0.00,VWS V14.01,2013-01-06 20:48:00,
2013-01-06 14:53:00,47.7,26.3,27.26,SW,225,7.6,10.7,43,0.00,,---,0.00,VWS V14.01,2013-01-06 20:53:00,
2013-01-06 14:58:00,47.7,26.3,27.26,SE,135,7.6,10.7,43,0.00,,---,0.00,VWS V14.01,2013-01-06 20:58:00,
2013-01-06 15:00:00,45.1,26.6,27.20,SSE,158,7.4,12.3,48,0.00,,---,0.00,VWS V14.01,2013-01-06 21:00:00,
2013-01-06 15:01:00,47.5,26.1,27.23,South,180,6.9,10.1,43,0.00,,---,0.00,VWS V14.01,2013-01-06 21:01:00,
2013-01-06 15:06:00,47.5,26.7,27.23,South,180,8.1,10.1,44,0.00,,---,0.00,VWS V14.01,2013-01-06 21:06:00,
2013-01-06 15:11:00,46.8,26.0,27.23,South,180,8.7,12.8,44,0.00,,---,0.00,VWS V14.01,2013-01-06 21:11:00,
2013-01-06 15:15:00,45.1,27.1,27.20,SE,135,8.7,10.3,49,0.00,,---,0.00,VWS V14.01,2013-01-06 21:15:00,
2013-01-06 15:16:00,46.4,26.2,27.23,South,180,9.6,10.7,45,0.00,,---,0.00,VWS V14.01,2013-01-06 21:16:00,
2013-01-06 15:21:00,45.9,26.3,27.23,South,180,10.7,11.0,46,0.00,,---,0.00,VWS V14.01,2013-01-06 21:21:00,
2013-01-06 15:26:00,45.9,26.3,27.23,South,180,10.1,12.3,46,0.00,,---,0.00,VWS V14.01,2013-01-06 21:26:00,
2013-01-06 15:30:00,44.1,26.6,27.20,SE,135,6.3,11.2,50,0.00,,---,0.00,VWS V14.01,2013-01-06 21:30:00,
2013-01-06 15:31:00,45.7,26.1,27.23,South,180,8.7,13.2,46,0.00,,---,0.00,VWS V14.01,2013-01-06 21:31:00,
2013-01-06 15:36:00,45.5,25.9,27.23,South,180,10.3,13.2,46,0.00,,---,0.00,VWS V14.01,2013-01-06 21:36:00,
2013-01-06 15:41:00,45.5,26.5,27.23,South,180,12.8,13.2,47,0.00,,---,0.00,VWS V14.01,2013-01-06 21:41:00,
2013-01-06 15:45:00,44.4,27.0,27.20,South,180,5.4,8.1,50,0.00,,---,0.00,VWS V14.01,2013-01-06 21:45:00,
2013-01-06 15:46:00,45.3,26.3,27.20,SSE,158,10.7,11.0,47,0.00,,---,0.00,VWS V14.01,2013-01-06 21:46:00,
2013-01-06 15:51:00,45.3,26.8,27.20,South,180,9.0,12.3,48,0.00,,---,0.00,VWS V14.01,2013-01-06 21:51:00,
2013-01-06 15:56:00,45.0,26.5,27.20,South,180,10.5,12.3,48,0.00,,---,0.00,VWS V14.01,2013-01-06 21:56:00,
2013-01-06 16:00:00,43.0,25.6,27.20,South,180,5.4,7.6,50,0.00,,---,0.00,VWS V14.01,2013-01-06 22:00:00,
2013-01-06 16:01:00,45.1,26.6,27.20,SSE,158,7.4,7.4,48,0.00,,---,0.00,VWS V14.01,2013-01-06 22:01:00,
2013-01-06 16:06:00,45.1,26.6,27.20,South,180,8.7,10.3,48,0.00,,---,0.00,VWS V14.01,2013-01-06 22:06:00,
2013-01-06 16:11:00,45.3,26.8,27.20,SSE,158,8.1,10.3,48,0.00,,---,0.00,VWS V14.01,2013-01-06 22:11:00,
2013-01-06 16:15:00,42.1,25.3,27.20,SE,135,4.3,8.1,51,0.00,,---,0.00,VWS V14.01,2013-01-06 22:15:00,
2013-01-06 16:16:00,45.0,27.0,27.20,SSE,158,10.5,10.5,49,0.00,,---,0.00,VWS V14.01,2013-01-06 22:16:00,
2013-01-06 16:21:00,44.2,26.3,27.20,South,180,10.1,11.0,49,0.00,,---,0.00,VWS V14.01,2013-01-06 22:21:00,
2013-01-06 16:26:00,44.2,26.8,27.20,SSE,158,10.1,11.2,50,0.00,,---,0.00,VWS V14.01,2013-01-06 22:26:00,
2013-01-06 16:30:00,38.1,23.0,27.20,SE,135,4.0,6.5,54,0.00,,---,0.00,VWS V14.01,2013-01-06 22:30:00,
2013-01-06 16:31:00,44.2,26.8,27.20,South,180,6.5,7.2,50,0.00,,---,0.00,VWS V14.01,2013-01-06 22:31:00,
2013-01-06 16:36:00,44.2,26.8,27.20,South,180,5.4,8.1,50,0.00,,---,0.00,VWS V14.01,2013-01-06 22:36:00,
2013-01-06 16:41:00,44.2,26.8,27.20,SE,135,4.0,8.1,50,0.00,,---,0.00,VWS V14.01,2013-01-06 22:41:00,
2013-01-06 16:45:00,36.5,23.1,27.20,SE,135,5.8,6.5,58,0.00,,---,0.00,VWS V14.01,2013-01-06 22:45:00,
2013-01-06 16:46:00,44.2,26.8,27.20,SSE,158,5.4,6.5,50,0.00,,---,0.00,VWS V14.01,2013-01-06 22:46:00,
2013-01-06 16:51:00,43.7,26.3,27.20,South,180,6.3,6.7,50,0.00,,---,0.00,VWS V14.01,2013-01-06 22:51:00,
2013-01-06 16:56:00,43.3,26.0,27.20,SSE,158,6.3,7.6,50,0.00,,---,0.00,VWS V14.01,2013-01-06 22:56:00,
2013-01-06 17:00:00,35.6,23.5,27.17,SE,135,7.8,7.8,61,0.00,,---,0.00,VWS V14.01,2013-01-06 23:00:00,
2013-01-06 17:01:00,42.8,25.5,27.20,SSE,158,5.8,6.5,50,0.00,,---,0.00,VWS V14.01,2013-01-06 23:01:00,
2013-01-06 17:06:00,42.4,25.1,27.20,SSE,158,3.4,8.1,50,0.00,,---,0.00,VWS V14.01,2013-01-06 23:06:00,
2013-01-06 17:11:00,42.6,25.3,27.20,SE,135,3.1,8.1,50,0.00,,---,0.00,VWS V14.01,2013-01-06 23:11:00,
2013-01-06 17:15:00,34.5,23.6,27.17,SE,135,7.2,9.6,64,0.00,,---,0.00,VWS V14.01,2013-01-06 23:15:00,
2013-01-06 17:16:00,41.5,24.8,27.20,SE,135,4.9,5.4,51,0.00,,---,0.00,VWS V14.01,2013-01-06 23:16:00,
2013-01-06 17:21:00,40.3,24.1,27.20,SE,135,4.0,5.4,52,0.00,,---,0.00,VWS V14.01,2013-01-06 23:21:00,
2013-01-06 17:26:00,39.2,23.1,27.20,SE,135,4.5,5.6,52,0.00,,---,0.00,VWS V14.01,2013-01-06 23:26:00,
2013-01-06 17:30:00,33.6,23.5,27.17,SE,135,5.4,9.4,66,0.00,,---,0.00,VWS V14.01,2013-01-06 23:30:00,
2013-01-06 17:31:00,37.9,22.8,27.20,SE,135,5.4,6.0,54,0.00,,---,0.00,VWS V14.01,2013-01-06 23:31:00,
2013-01-06 17:36:00,37.2,23.0,27.20,SE,135,5.6,6.3,56,0.00,,---,0.00,VWS V14.01,2013-01-06 23:36:00,
2013-01-06 17:41:00,36.9,23.5,27.20,SE,135,5.6,6.5,58,0.00,,---,0.00,VWS V14.01,2013-01-06 23:41:00,
2013-01-06 17:45:00,33.3,23.9,27.17,SE,135,5.6,6.0,68,0.00,,---,0.00,VWS V14.01,2013-01-06 23:45:00,
2013-01-06 17:46:00,36.3,23.4,27.17,SE,135,4.3,5.8,59,0.00,,---,0.00,VWS V14.01,2013-01-06 23:46:00,
2013-01-06 17:51:00,36.0,23.4,27.17,SE,135,6.7,7.6,60,0.00,,---,0.00,VWS V14.01,2013-01-06 23:51:00,
2013-01-06 17:56:00,35.8,23.3,27.17,SE,135,6.3,7.8,60,0.00,,---,0.00,VWS V14.01,2013-01-06 23:56:00,
2013-01-06 18:00:00,32.2,22.5,27.17,SSE,158,3.6,6.5,67,0.00,,---,0.00,VWS V14.01,2013-01-07 00:00:00,
2013-01-06 18:01:00,35.2,23.1,27.17,SE,135,7.6,7.8,61,0.00,,---,0.00,VWS V14.01,2013-01-07 00:01:00,
2013-01-06 18:06:00,34.9,23.2,27.17,SE,135,6.3,8.5,62,0.00,,---,0.00,VWS V14.01,2013-01-07 00:06:00,
2013-01-06 18:11:00,34.7,23.8,27.17,SE,135,9.6,9.6,64,0.00,,---,0.00,VWS V14.01,2013-01-07 00:11:00,
2013-01-06 18:16:00,34.5,23.6,27.17,SE,135,6.5,8.5,64,0.00,,---,0.00,VWS V14.01,2013-01-07 00:16:00,
2013-01-06 18:21:00,34.2,23.3,27.17,SE,135,6.0,9.4,64,0.00,,---,0.00,VWS V14.01,2013-01-07 00:21:00,
2013-01-06 18:26:00,33.8,23.3,27.17,SE,135,6.3,9.4,65,0.00,,---,0.00,VWS V14.01,2013-01-07 00:26:00,
2013-01-06 18:30:00,29.3,21.4,27.14,SSE,158,3.1,5.4,72,0.00,,---,0.00,VWS V14.01,2013-01-07 00:30:00,
2013-01-06 18:31:00,33.6,23.5,27.17,SE,135,4.9,5.4,66,0.00,,---,0.00,VWS V14.01,2013-01-07 00:31:00,
2013-01-06 18:36:00,33.1,22.6,27.17,SE,135,5.4,5.6,65,0.00,,---,0.00,VWS V14.01,2013-01-07 00:36:00,
2013-01-06 18:41:00,33.1,23.3,27.17,SE,135,4.9,5.6,67,0.00,,---,0.00,VWS V14.01,2013-01-07 00:41:00,
2013-01-06 18:45:00,28.6,21.7,27.14,SSE,158,2.5,3.8,75,0.00,,---,0.00,VWS V14.01,2013-01-07 00:45:00,
2013-01-06 18:46:00,33.1,23.7,27.17,SE,135,6.3,6.3,68,0.00,,---,0.00,VWS V14.01,2013-01-07 00:46:00,
2013-01-06 18:51:00,32.9,22.8,27.17,SE,135,5.6,6.5,66,0.00,,---,0.00,VWS V14.01,2013-01-07 00:51:00,
2013-01-06 18:56:00,32.2,22.5,27.17,SSE,158,5.6,6.5,67,0.00,,---,0.00,VWS V14.01,2013-01-07 00:56:00,
2013-01-06 19:00:00,27.9,21.3,27.14,SSE,158,3.1,4.3,76,0.00,,---,0.00,VWS V14.01,2013-01-07 01:00:00,
2013-01-06 19:01:00,31.6,22.3,27.14,SSE,158,3.1,4.7,68,0.00,,---,0.00,VWS V14.01,2013-01-07 01:01:00,
2013-01-06 19:06:00,31.3,22.0,27.14,SE,135,4.0,5.4,68,0.00,,---,0.00,VWS V14.01,2013-01-07 01:06:00,
2013-01-06 19:11:00,30.9,22.3,27.14,SSE,158,4.0,5.4,70,0.00,,---,0.00,VWS V14.01,2013-01-07 01:11:00,
2013-01-06 19:15:00,25.9,20.3,27.14,South,180,2.7,4.3,79,0.00,,---,0.00,VWS V14.01,2013-01-07 01:15:00,
2013-01-06 19:16:00,30.6,22.3,27.14,SE,135,3.8,5.4,71,0.00,,---,0.00,VWS V14.01,2013-01-07 01:16:00,
2013-01-06 19:21:00,30.0,22.1,27.14,South,180,2.9,5.4,72,0.00,,---,0.00,VWS V14.01,2013-01-07 01:21:00,
2013-01-06 19:26:00,29.7,21.8,27.14,SSE,158,2.7,5.4,72,0.00,,---,0.00,VWS V14.01,2013-01-07 01:26:00,
2013-01-06 19:30:00,25.9,20.6,27.14,SSW,202,2.2,3.6,80,0.00,,---,0.00,VWS V14.01,2013-01-07 01:30:00,
2013-01-06 19:31:00,29.3,21.4,27.14,South,180,3.6,3.6,72,0.00,,---,0.00,VWS V14.01,2013-01-07 01:31:00,
2013-01-06 19:36:00,28.8,21.9,27.14,South,180,3.1,3.8,75,0.00,,---,0.00,VWS V14.01,2013-01-07 01:36:00,
2013-01-06 19:41:00,28.6,21.7,27.14,SE,135,3.6,3.8,75,0.00,,---,0.00,VWS V14.01,2013-01-07 01:41:00,
2013-01-06 19:45:00,27.1,22.4,27.14,South,180,3.1,4.3,82,0.00,,---,0.00,VWS V14.01,2013-01-07 01:45:00,
2013-01-06 19:46:00,28.6,21.7,27.14,South,180,0.0,2.9,75,0.00,,---,0.00,VWS V14.01,2013-01-07 01:46:00,
2013-01-06 19:51:00,28.6,22.3,27.14,SSE,158,2.7,2.9,77,0.00,,---,0.00,VWS V14.01,2013-01-07 01:51:00,
2013-01-06 19:56:00,28.0,21.1,27.14,South,180,2.7,3.1,75,0.00,,---,0.00,VWS V14.01,2013-01-07 01:56:00,
2013-01-06 20:00:00,26.6,21.3,27.14,South,180,4.9,4.9,80,0.00,,---,0.00,VWS V14.01,2013-01-07 02:00:00,
2013-01-06 20:01:00,27.9,21.6,27.14,SSW,202,3.1,4.3,77,0.00,,---,0.00,VWS V14.01,2013-01-07 02:01:00,
2013-01-06 20:06:00,27.1,20.9,27.14,South,180,3.8,4.3,77,0.00,,---,0.00,VWS V14.01,2013-01-07 02:06:00,
2013-01-06 20:11:00,27.0,20.7,27.14,SSE,158,4.3,4.3,77,0.00,,---,0.00,VWS V14.01,2013-01-07 02:11:00,
2013-01-06 20:15:00,26.1,20.8,27.14,South,180,3.1,4.9,80,0.00,,---,0.00,VWS V14.01,2013-01-07 02:15:00,
2013-01-06 20:16:00,25.9,20.3,27.14,South,180,2.5,2.9,79,0.00,,---,0.00,VWS V14.01,2013-01-07 02:16:00,
2013-01-06 20:21:00,25.7,20.4,27.14,NW,315,1.6,3.6,80,0.00,,---,0.00,VWS V14.01,2013-01-07 02:21:00,
2013-01-06 20:26:00,25.5,19.9,27.14,NE,45,0.0,3.6,79,0.00,,---,0.00,VWS V14.01,2013-01-07 02:26:00,
2013-01-06 20:30:00,25.3,20.3,27.14,South,180,0.9,4.3,81,0.00,,---,0.00,VWS V14.01,2013-01-07 02:30:00,
2013-01-06 20:31:00,26.1,21.3,27.14,South,180,0.0,2.2,82,0.00,,---,0.00,VWS V14.01,2013-01-07 02:31:00,
2013-01-06 20:36:00,27.0,22.8,27.14,SW,225,1.1,2.2,84,0.00,,---,0.00,VWS V14.01,2013-01-07 02:36:00,
2013-01-06 20:41:00,27.1,22.7,27.14,South,180,3.6,3.6,83,0.00,,---,0.00,VWS V14.01,2013-01-07 02:41:00,
2013-01-06 20:45:00,24.3,19.6,27.17,SE,135,1.6,2.7,82,0.00,,---,0.00,VWS V14.01,2013-01-07 02:45:00,
2013-01-06 20:46:00,27.0,21.9,27.14,SSE,158,3.8,4.0,81,0.00,,---,0.00,VWS V14.01,2013-01-07 02:46:00,
2013-01-06 20:51:00,27.0,21.9,27.14,South,180,2.9,4.0,81,0.00,,---,0.00,VWS V14.01,2013-01-07 02:51:00,
2013-01-06 20:56:00,27.0,21.9,27.14,South,180,4.7,4.7,81,0.00,,---,0.00,VWS V14.01,2013-01-07 02:56:00,
2013-01-06 21:00:00,23.5,18.9,27.14,SSE,158,2.5,2.7,82,0.00,,---,0.00,VWS V14.01,2013-01-07 03:00:00,
2013-01-06 21:01:00,26.4,21.1,27.14,SSE,158,4.5,4.9,80,0.00,,---,0.00,VWS V14.01,2013-01-07 03:01:00,
2013-01-06 21:06:00,26.4,21.4,27.14,South,180,3.1,4.9,81,0.00,,---,0.00,VWS V14.01,2013-01-07 03:06:00,
2013-01-06 21:11:00,26.4,21.4,27.14,SSE,158,3.4,4.9,81,0.00,,---,0.00,VWS V14.01,2013-01-07 03:11:00,
2013-01-06 21:15:00,24.1,21.0,27.14,South,180,2.7,3.6,88,0.00,,---,0.00,VWS V14.01,2013-01-07 03:15:00,
2013-01-06 21:16:00,25.9,20.3,27.14,SSE,158,3.8,4.3,79,0.00,,---,0.00,VWS V14.01,2013-01-07 03:16:00,
2013-01-06 21:21:00,26.1,21.0,27.14,SSE,158,2.7,4.3,81,0.00,,---,0.00,VWS V14.01,2013-01-07 03:21:00,
2013-01-06 21:26:00,25.5,20.2,27.14,South,180,1.3,4.3,80,0.00,,---,0.00,VWS V14.01,2013-01-07 03:26:00,
2013-01-06 21:30:00,23.9,20.1,27.14,SE,135,0.0,2.7,85,0.00,,---,0.00,VWS V14.01,2013-01-07 03:30:00,
2013-01-06 21:31:00,25.3,20.3,27.14,South,180,1.1,1.6,81,0.00,,---,0.00,VWS V14.01,2013-01-07 03:31:00,
2013-01-06 21:36:00,24.6,20.2,27.17,South,180,2.7,2.7,83,0.00,,---,0.00,VWS V14.01,2013-01-07 03:36:00,
2013-01-06 21:41:00,24.3,19.6,27.17,SW,225,1.1,2.7,82,0.00,,---,0.00,VWS V14.01,2013-01-07 03:41:00,
2013-01-06 21:45:00,23.2,18.5,27.14,NW,315,0.0,1.3,82,0.00,,---,0.00,VWS V14.01,2013-01-07 03:45:00,
2013-01-06 21:46:00,24.3,19.6,27.17,SE,135,2.0,2.5,82,0.00,,---,0.00,VWS V14.01,2013-01-07 03:46:00,
2013-01-06 21:51:00,23.7,18.5,27.14,SE,135,0.0,2.5,80,0.00,,---,0.00,VWS V14.01,2013-01-07 03:51:00,
2013-01-06 21:56:00,23.5,18.9,27.14,SSE,158,0.0,2.5,82,0.00,,---,0.00,VWS V14.01,2013-01-07 03:56:00,
2013-01-06 22:00:00,23.5,19.4,27.14,NNW,338,1.1,2.5,84,0.00,,---,0.00,VWS V14.01,2013-01-07 04:00:00,
2013-01-06 22:01:00,23.5,18.9,27.14,South,180,3.6,3.6,82,0.00,,---,0.00,VWS V14.01,2013-01-07 04:01:00,
2013-01-06 22:06:00,23.7,19.6,27.14,SW,225,0.0,3.6,84,0.00,,---,0.00,VWS V14.01,2013-01-07 04:06:00,
2013-01-06 22:11:00,23.9,20.6,27.14,South,180,0.0,3.6,87,0.00,,---,0.00,VWS V14.01,2013-01-07 04:11:00,
2013-01-06 22:15:00,22.6,18.3,27.11,East,90,0.0,2.2,83,0.00,,---,0.00,VWS V14.01,2013-01-07 04:15:00,
2013-01-06 22:16:00,24.3,21.0,27.14,SSE,158,2.7,2.7,87,0.00,,---,0.00,VWS V14.01,2013-01-07 04:16:00,
2013-01-06 22:21:00,24.1,20.2,27.14,SE,135,0.0,2.7,85,0.00,,---,0.00,VWS V14.01,2013-01-07 04:21:00,
2013-01-06 22:26:00,23.9,20.3,27.14,SSE,158,0.0,2.7,86,0.00,,---,0.00,VWS V14.01,2013-01-07 04:26:00,
2013-01-06 22:30:00,21.7,17.4,27.11,SSW,202,0.0,3.1,83,0.00,,---,0.00,VWS V14.01,2013-01-07 04:30:00,
2013-01-06 22:31:00,23.7,19.6,27.14,SE,135,0.0,0.0,84,0.00,,---,0.00,VWS V14.01,2013-01-07 04:31:00,
2013-01-06 22:36:00,23.5,18.9,27.14,SE,135,0.0,0.0,82,0.00,,---,0.00,VWS V14.01,2013-01-07 04:36:00,
2013-01-06 22:41:00,23.2,18.5,27.14,SE,135,0.0,0.0,82,0.00,,---,0.00,VWS V14.01,2013-01-07 04:41:00,
2013-01-06 22:45:00,21.0,16.7,27.11,SE,135,0.0,2.2,83,0.00,,---,0.00,VWS V14.01,2013-01-07 04:45:00,
2013-01-06 22:46:00,23.4,18.7,27.14,NW,315,0.0,0.0,82,0.00,,---,0.00,VWS V14.01,2013-01-07 04:46:00,
2013-01-06 22:51:00,23.4,19.0,27.14,NW,315,0.0,0.0,83,0.00,,---,0.00,VWS V14.01,2013-01-07 04:51:00,
2013-01-06 22:56:00,23.5,19.4,27.14,NW,315,0.0,0.0,84,0.00,,---,0.00,VWS V14.01,2013-01-07 04:56:00,
2013-01-06 23:00:00,23.5,19.4,27.14,NNW,338,1.1,2.5,84,0.00,,---,0.00,VWS V14.01,2013-01-07 05:00:00,
2013-01-06 23:05:00,23.2,19.1,27.11,South,180,0.0,1.3,84,0.00,,---,0.00,VWS V14.01,2013-01-07 05:05:00,
2013-01-06 23:10:00,23.0,18.9,27.11,NW,315,2.2,2.2,84,0.00,,---,0.00,VWS V14.01,2013-01-07 05:10:00,
2013-01-06 23:15:00,22.6,18.3,27.11,North,0,0.0,0.0,83,0.00,,---,0.00,VWS V14.01,2013-01-07 05:15:00,
2013-01-06 23:20:00,22.1,17.5,27.11,SE,135,0.0,0.0,82,0.00,,---,0.00,VWS V14.01,2013-01-07 05:20:00,
2013-01-06 23:25:00,21.9,17.6,27.11,SSE,158,2.7,2.7,83,0.00,,---,0.00,VWS V14.01,2013-01-07 05:25:00,
2013-01-06 23:30:00,21.7,17.4,27.11,SSW,202,0.0,0.0,83,0.00,,---,0.00,VWS V14.01,2013-01-07 05:30:00,
2013-01-06 23:35:00,21.4,16.8,27.11,NW,315,0.0,0.0,82,0.00,,---,0.00,VWS V14.01,2013-01-07 05:35:00,
2013-01-06 23:40:00,21.2,16.6,27.11,SE,135,0.0,0.0,82,0.00,,---,0.00,VWS V14.01,2013-01-07 05:40:00,
2013-01-06 23:45:00,21.0,16.7,27.11,SE,135,0.0,0.0,83,0.00,,---,0.00,VWS V14.01,2013-01-07 05:45:00,
2013-01-06 23:50:00,20.8,16.5,27.11,SE,135,0.0,2.5,83,0.00,,---,0.00,VWS V14.01,2013-01-07 05:50:00,
2013-01-06 23:55:00,21.4,17.0,27.11,SE,135,1.3,3.1,83,0.00,,---,0.00,VWS V14.01,2013-01-07 05:55:00,